Terminal Aerodrome Forecast
Issued by NWS Missoula, MT

Home | Current Version | Previous Version | Text Only | Print | Product List | Glossary On
Versions: 1 2 3 4 5 6 7 8 9 10 11 12 13 14 15
930
FTUS45 KMSO 091127
TAFGPI
TAF
KGPI 091127Z 0912/1012 01015KT P6SM OVC080
     FM091300 02010KT P6SM VCSH OVC050
     FM091500 02007KT P6SM -SN BKN025 OVC040
     FM092000 VRB05KT P6SM VCSH OVC050=

USA.gov is the U.S. government's official web portal to all federal, state and local government web resources and services.